Regional Weather Roundup
Issued by NWS Jackson, KY

Home | Current Version | Previous Version | Text Only | Print | Product List | Glossary On
Versions: 1 2 3 4 5 6 7 8 9 10 11 12 13 14 15 16 17 18 19 20 21 22 23 24 25 26 27 28 29 30 31 32 33 34 35 36 37 38 39 40 41 42 43 44 45 46 47 48 49 50
000
ASUS43 KJKL 281010
RWRJKL

EAST KENTUCKY HOURLY WEATHER ROUNDUP
NATIONAL WEATHER SERVICE JACKSON KY
600 AM EDT WED JUN 28 2017

NOTE: "FAIR" INDICATES FEW OR NO CLOUDS BELOW 12,000 FEET WITH
NO SIGNIFICANT WEATHER AND/OR OBSTRUCTIONS TO VISIBILITY.

* THESE REPORTS ARE NOT UNDER NWS QUALITY CONTROL AND MAY NOT
  REPORT WEATHER SUCH AS PRECIPITATION AND FOG.

KYZ079-080-083-085-087-088-110-112-115-119-120-281100
...EASTERN KENTUCKY...

CITY           SKY/WX    TMP DP  RH WIND       PRES   REMARKS
JACKSON        CLEAR     55  49  80 CALM      30.17R
LONDON         CLEAR     52  49  89 CALM      30.17R
SOMERSET*      PTCLDY    50  50 100 CALM      30.16S
MONTICELLO*    CLEAR     51  50  96 W3        30.16S
WILLIAMSBURG*  SUNNY     50  50 100 CALM      30.17R
MIDDLESBORO*   CLEAR     50  50 100 CALM      30.21R
HARLAN APT*    SUNNY     50  48  93 CALM      30.20R
PIKE CO APT*     N/A     53  53 100 SE5       30.19R
BIG SANDY APT* SUNNY     52  52 100 CALM      30.19R
MOREHEAD APT*  SUNNY     54  48  82 SE5       30.18R
ASHLAND*       MOCLDY    52  50  93 CALM      30.15S
$$

KYZ035-036-041-042-044-050-067-078-099-281100
...CENTRAL KENTUCKY...

CITY           SKY/WX    TMP DP  RH WIND       PRES   REMARKS
MT STERLING*   PTCLDY    52  50  93 SE5       30.16F
FLEMING/MASON* CLEAR     50  49  97 SE6       30.15F
DANVILLE*      CLEAR     50  48  93 CALM      30.14F
LEXINGTON      PTCLDY    56  48  74 SE8       30.13F
FRANKFORT      CLEAR     53  49  86 CALM      30.11F
LOUISVILLE     CLEAR     59  53  80 CALM      30.09F
LEBANON*         N/A     59  46  63 SE8       30.11F
GLASGOW*       CLEAR     54  54 100 CALM      30.10F
BOWLING GREEN  CLEAR     56  55  97 CALM      30.09F
$$

KYZ091>093-OHZ055-061-077-WVZ005-015-034-035-042-281100
...SOUTHERN OHIO/WEST VIRGINIA...

CITY           SKY/WX    TMP DP  RH WIND       PRES   REMARKS
COVINGTON      CLEAR     56  51  84 S5        30.11F
COLUMBUS       PTCLDY    52  50  93 E3        30.15R
DAYTON         CLEAR     53  47  79 SE6       30.12F
WILMINGTON     CLEAR     52  50  93 SE5       30.13F
HUNTINGTON     CLEAR     51  49  92 E3        30.16S
CHARLESTON     PTCLDY    50  48  93 CALM      30.18S
PINEVILLE*     CLEAR     47  46  97 MISG      30.27R
BECKLEY        CLEAR     47  44  90 CALM      30.23R
BLUEFIELD      CLEAR     51  43  74 CALM      30.24R
LOGAN CO APT*    N/A     54  50  87 CALM      30.19R
$$

VAZ002-007-008-TNZ017-027-036-066-071-281100
...SOUTHWEST VIRGINIA/EAST TENNESSEE...

CITY           SKY/WX    TMP DP  RH WIND       PRES   REMARKS
WISE*          CLEAR     54  43  66 CALM      30.23R
JONESVILLE*      N/A     48  48 100 CALM      30.21R
ABINGDON*      CLEAR     53  49  87 E5        30.21R
BRISTOL        CLEAR     50  49  96 NE3       30.19S
MORRISTOWN*    SUNNY     55  52  88 CALM      30.16R
SEVIERVILLE*   SUNNY     50  48  93 CALM      30.16R
KNOXVILLE      PTCLDY    55  52  89 NE5       30.14R
LAFOLLETTE*      N/A     52  50  93 CALM      30.21R
OAK RIDGE      CLEAR     55  53  93 CALM      30.17R
CROSSVILLE     CLEAR     51  49  92 CALM      30.18R
NASHVILLE      CLEAR     60  57  89 SE3       30.10F
$$

...KEY TO REMARKS...
VSB - VISIBILITY IN MILES
WCI - WIND CHILL INDEX
HX  - HEAT INDEX

$$



USA.gov is the U.S. government's official web portal to all federal, state and local government web resources and services.